This is the latest recevied weather packets stored in our database for station/object WW5JC. If no packets are shown the sender has not sent any weather packets the latest 10 day(s).
| Time | Temp. | Humidity | Pressure | Rain* | Wind** | Luminosity | Snow |
|---|---|---|---|---|---|---|---|
| 1787951732 | 37.78° C | 32% | 1017.1 hPa | 0 mm | - | 452 W/m² | - |
| 1787951428 | 38.33° C | 32% | 1017.2 hPa | 0 mm | - | 453 W/m² | - |
| 1787951124 | 37.78° C | 32% | 1017.2 hPa | 0 mm | - | 461 W/m² | - |
| 1787950820 | 37.78° C | 32% | 1017.5 hPa | 0 mm | - | 475 W/m² | - |
| 1787950515 | 37.78° C | 32% | 1017.4 hPa | 0 mm | - | 493 W/m² | - |
| 1787950211 | 37.22° C | 32% | 1017.5 hPa | 0 mm | - | 501 W/m² | - |
| 1787949908 | 36.67° C | 34% | 1017.7 hPa | 0 mm | - | 512 W/m² | - |
| 1787949602 | 37.22° C | 33% | 1017.9 hPa | 0 mm | - | 527 W/m² | - |
| 1787949297 | 37.78° C | 33% | 1017.8 hPa | 0 mm | - | 534 W/m² | - |
| 1787948992 | 38.33° C | 33% | 1017.8 hPa | 0 mm | - | 537 W/m² | - |
| 1787948687 | 36.67° C | 35% | 1018.1 hPa | 0 mm | - | 550 W/m² | - |
| 1787948383 | 36.11° C | 35% | 1018.2 hPa | 0 mm | - | 518 W/m² | - |
| 1787948083 | 37.78° C | 34% | 1018.2 hPa | 0 mm | - | 140 W/m² | - |
| 1787947781 | 37.22° C | 34% | 1018.2 hPa | 0 mm | - | 594 W/m² | - |
| 1787947480 | 37.78° C | 35% | 1018.2 hPa | 0 mm | - | 601 W/m² | - |
| 1787947175 | 37.78° C | 34% | 1018.2 hPa | 0 mm | - | 608 W/m² | - |
| 1787946874 | 37.22° C | 34% | 1018.3 hPa | 0 mm | - | 618 W/m² | - |
| 1787946572 | 36.67° C | 36% | 1018.3 hPa | 0 mm | - | 623 W/m² | - |
| 1787946268 | 36.67° C | 34% | 1018.6 hPa | 0 mm | - | 633 W/m² | - |
| 1787945962 | 36.67° C | 36% | 1018.6 hPa | 0 mm | - | 641 W/m² | - |
| 1787945657 | 36.11° C | 39% | 1018.6 hPa | 0 mm | - | 664 W/m² | - |
| 1787945356 | 35.56° C | 40% | 1018.8 hPa | 0 mm | - | 353 W/m² | - |
| 1787945052 | 35.56° C | 41% | 1018.7 hPa | 0 mm | - | 158 W/m² | - |
| 1787944749 | 36.67° C | 38% | 1018.9 hPa | 0 mm | - | 187 W/m² | - |
| 1787944445 | 37.22° C | 36% | 1018.8 hPa | 0 mm | - | 689 W/m² | - |
* Rain latest hour (hover to see other rain measurements)
** Current wind speed in m/s (hover to see current wind gust speed)